{"data":{"norad_id":52746,"epoch":"2026-05-25T04:05:39.649056Z","epoch_age_seconds":57486,"freshness":"FRESH","line1":"1 52746U 22057Q   26145.17059779  .00006491  00000+0  19977-3 0  9998","line2":"2 52746  97.6493 288.8290 0006555 175.5103 184.6199 15.34002005222019","mean_motion":15.34002005,"eccentricity":0.0006555,"inclination_deg":97.6493,"raan_deg":288.829,"arg_perigee_deg":175.5103,"mean_anomaly_deg":184.6199,"bstar":0.00019977,"rev_number":22201,"period_min":93.872106770812,"perigee_km":459.40147461801,"apogee_km":468.3713673229,"semimajor_km":6842.0234209705,"source":"CELESTRAK","updated_at":"2026-05-25T13:37:57.885617Z"}}